STARLINK-5743, 55597

Orbit data source: Space-Track

STARLINK-5743, 55597 is a payload satellite owned by SpaceX/Seattle (US) in LEO that was launched on Sun, 12 Feb 2023 UTC via an FALCON 9 launch vehicle from the Air Force Eastern Test Range (AFETR). Payload-class satellites include a variety of spacecraft equipped with specific instruments for various scientific and technological missions. These include communications satellites like Starlink; space stations such as the ISS; scientific satellites like the Hubble; Earth observation satellites from companies like Planet Labs, Umbra, and HawkEye 360; GPS; miniature CubeSats for education and research; and military/defense satellites.

Loading next visibility...
Identifier
55597, 2023-020AE
Orbit
LEO
Country
Flag of USUS
Related business
Manufacturer
SpaceX/Seattle
Mission
Operational Commercial Communications
Bus & Motor
STARLINK, Unknown motor
Mass
305 kg wet, ~290 kg dry
Launch date (UTC)
2023-02-12 (4 years ago)
Launch vehicle
FALCON 9
Launch site
Air Force Eastern Test Range (AFETR)
Object type
Payload
Rocket body
Debris
Shape & HBR
Box + 1 Pan, 10.1 m
Radar Cross Section
13.562 m², Large (>1 m²)

Expand to show TLE details & history
Last TLE update: 20 hours ago

TLE from 20 hours ago
0 STARLINK-5743
1 55597U 23020AE  26263.67720520  .00000496  00000-0  27553-4 0  9991
2 55597  43.0034 332.7649 0001465 274.2900  85.7784 15.27581725198865
Epoch: 2026-09-20T16:15Z
TLE epoch observation values (Epoch: 2026-09-20T16:15:10.529Z)
Latitude
-0.00003°
Longitude
89.40304°
Altitude
482.746 km
Speed
7.626 km/s
True Right ascension
22h 11m 03s
True Declination
0° 00' 00"
Sunlit
Object was in full shadow at epoch
Visualization orbit readout
Latitude
Unknown
Longitude
Unknown
Altitude
Unknown
Speed
Unknown
Apparent Right ascension
Unknown
Apparent Declination
Unknown
Sunlit
N/A
Visualization observer readout
Local Sidereal Time
04:58:46
Azimuth
Unknown
Elevation
Unknown
Doppler factor
Unknown
Orbital elements
Apogee altitude
485.994 km
Perigee altitude
483.983 km
Semi-major axis
6,863.126 km
Eccentricity
0.00015
Inclination
43.0034°
RAAN
332.7649°
Arg. of periapsis
274.29°
True anomaly
85.79514°
Mean anomaly
85.7784°
Eccentric anomaly
85.78677°
Mean motion
3.81733 °/min
Orbital period
94.31 mins
BSTAR
0.000027553
Loading maneuver chart data...
Computing Atmospheric mass density...
Loading historical data...
Loading historical data...
Loading historical data...
Loading historical data...
Loading historical data...
Loading historical data...
Loading historical data...

Documentation

Showing up to 5 results
|